Regional Weather Roundup
Issued by NWS

Home | Current Version | Previous Version | Graphics & Text | Print | Product List | Glossary On
Versions: 1 2 3 4 5 6 7 8 9 10 11 12 13 14 15 16 17 18 19 20 21 22 23 24 25 26 27 28 29 30 31 32 33 34 35 36 37 38 39 40 41 42 43 44 45 46 47 48 49 50
650
ASUS43 KIND 212200
RWRIN

WEATHER ROUNDUP FOR INDIANA
NATIONAL WEATHER SERVICE INDIANAPOLIS IN
600 PM EDT THU SEP 21 2017

NOTE: "FAIR" INDICATES FEW OR NO CLOUDS BELOW 12,000 FEET WITH NO
SIGNIFICANT WEATHER AND/OR OBSTRUCTIONS TO VISIBILITY.

* - STATION DOES NOT REPORT WEATHER SUCH AS PRECIPITATION OR FOG.

+ - STATION NOT QUALITY CONTROLLED BY THE NATIONAL WEATHER SERVICE.
    USE DATA WITH CAUTION...ESPECIALLY DEWPOINT AND RELATIVE
    HUMIDITY OBSERVATIONS.

INZ001>003-010>013-019-020-212300-
NORTHWEST INDIANA

CITY           SKY/WX    TMP DP  RH WIND       PRES   REMARKS
KNOX *+        MOSUNNY   90  70  51 S6        30.00S HX  95
MICHIGAN CITY+ SUNNY     84  73  70 N3        30.00F
MONTICELLO +   SUNNY     90  68  49 CALM      30.00F
RENSSELAER +   SUNNY     90  57  33 S6        30.00S

$$

LMZ046-743>745-212300-
SOUTHERN LAKE MICHIGAN

STATION/POSITION TIME  TEMP    WIND        PRES    WAVE
                       AIR SEA DIR/SP/G            HT
                 (UTC) (F)     (DEG/KT/KT) (MB)    (FT)
BURNS HARBOR     2140   77      80/ 12/ 14 1015.9F
MICHIGAN CITY    2130   75      50/ 12/ 12   N/A
5NW MICH CITY    2150   74 71   90/  8/ 10   N/A     1

$$

INZ004-005-014>016-021>024-212300-
NORTH CENTRAL INDIANA

CITY           SKY/WX    TMP DP  RH WIND       PRES   REMARKS
ELKHART        MOSUNNY   90  72  55 SW6       30.01S HX  96
GOSHEN         SUNNY     89  68  49 S8        30.02S
SOUTH BEND     SUNNY     89  71  55 SW7       30.02S HX  95
WARSAW +       SUNNY     88  70  55 CALM      30.02F

$$

INZ006>009-017-018-025>027-212300-
NORTHEAST INDIANA

CITY           SKY/WX    TMP DP  RH WIND       PRES   REMARKS
AUBURN +       SUNNY     88  68  51 CALM      30.04S
FORT WAYNE     MOSUNNY   87  70  56 SW3       30.03S
KENDALLVILLE + SUNNY     87  70  56 SW5       30.05S

$$

INZ028-029-035-036-043>045-051>053-212300-
WEST CENTRAL INDIANA

CITY           SKY/WX    TMP DP  RH WIND       PRES   REMARKS
GREENCASTLE +  SUNNY     88  64  45 SW3       30.03F
LAFAYETTE      MOSUNNY   90  69  50 SW5       29.99F
TERRE HAUTE    MOSUNNY   93  64  38 S7        30.01S

$$

INZ030>032-037>040-046>048-054>057-064-065-212300-
CENTRAL INDIANA

CITY           SKY/WX    TMP DP  RH WIND       PRES   REMARKS
COLUMBUS       MOSUNNY   90  61  37 SW7       30.03S
INDIANAPOLIS   MOSUNNY   89  67  47 SW7       30.02F
-EAGLE CREEK   SUNNY     90  65  43 S6        30.01F
KOKOMO +       SUNNY     88  72  58 S7        30.03F
MT COMFORT *+  SUNNY     90  66  45 SW5       30.04S
SHELBYVILLE    PTSUNNY   91  65  41 SW6       30.02F

$$

INZ033-034-041-042-049-050-058-059-212300-
EAST CENTRAL INDIANA

CITY           SKY/WX    TMP DP  RH WIND       PRES   REMARKS
MUNCIE         SUNNY     91  66  43 VRB5      30.03F
RICHMOND +     MOSUNNY   88  66  48 W3        30.06S HAZE

$$

INZ060-061-067>069-081>083-085>088-212300-
SOUTHWEST INDIANA

CITY           SKY/WX    TMP DP  RH WIND       PRES   REMARKS
EVANSVILLE     SUNNY     90  68  48 S3        30.00F
HUNTINGBURG +  MOSUNNY   90  71  53 SE3       30.01F HX  96

$$

INZ062-063-066-070>080-084-089>092-212300-
SOUTH CENTRAL AND SOUTHEAST INDIANA

CITY           SKY/WX    TMP DP  RH WIND       PRES   REMARKS
BLOOMINGTON    SUNNY     90  66  45 S6        30.03S
MADISON *+     PTSUNNY   90  66  45 CALM      30.06S
SEYMOUR +      SUNNY     91  66  43 CALM      30.02F

$$





USA.gov is the U.S. government's official web portal to all federal, state and local government web resources and services.